Weather History for Lordsburg, NM

Change the Weather History Date:

Thursday, January 3, 2013

  Actual Average Record
Temperature  
Mean Temperature 34 °F -  
Max Temperature 37 °F 53 °F 59 °F (2014)
Min Temperature 30 °F 24 °F 23 °F (2014)
Degree Days  
Heating Degree Days 32    
Moisture  
Dew Point 22 °F    
Average Humidity 65    
Maximum Humidity 93    
Minimum Humidity 44    
Precipitation  
Precipitation 0.00 in - - ()
Sea Level Pressure  
Sea Level Pressure 30.18 in    
Wind  
Wind Speed 14 mph (SE)    
Max Wind Speed 25 mph    
Max Gust Speed 33 mph    
Visibility 10 miles    
Events Snow    
Averages and records for this station are not official NWS values.
T = Trace of Precipitation, MM = Missing Value Source: NWS Daily Summary

Daily Weather History Graph

Daily Weather History Graph

Search for Another Location

Airport:

Trip Planner

Search our weather history database for the weather conditions in past years. The results will help you decide how hot, cold, wet, or windy it might be!

Date:

Astronomy

Jan. 03, 2013 Rise Set
Actual Time 7:16 AM MST 5:22 PM MST
Civil Twilight 6:49 AM MST 5:49 PM MST
Nautical Twilight 6:19 AM MST 6:20 PM MST
Astronomical Twilight 5:49 AM MST 6:49 PM MST
Moon 11:36 PM MST (1/3) 10:52 AM MST (1/3)
Length of Visible Light 10h 59m
Length of Day
10h 05m
Waning Gibbous, 65% of the Moon is Illuminated
Jan 3
Waning Gibbous
Jan 4
Last Quarter
Jan 11
New
Jan 18
First Quarter
Jan 26
Full

Hourly Weather History & Observations

Time (MST) Temp. Windchill Dew Point Humidity Pressure Visibility Wind Dir Wind Speed Gust Speed Precip Events Conditions
12:15 AM 32.0 °F 23.6 °F 14.0 °F 48% 30.11 in 10.0 mi South 10.4 mph - N/A   Clear
12:35 AM 30.2 °F 21.3 °F 12.2 °F 47% 30.10 in 10.0 mi South 10.4 mph - N/A   Clear
12:55 AM 30.2 °F 21.9 °F 12.2 °F 47% 30.10 in 10.0 mi South 9.2 mph - N/A   Clear
1:15 AM 30.2 °F 20.8 °F 12.2 °F 47% 30.10 in 10.0 mi South 11.5 mph - N/A   Clear
1:35 AM 30.2 °F 21.3 °F 12.2 °F 47% 30.10 in 10.0 mi SSE 10.4 mph - N/A   Clear
1:55 AM 30.2 °F 20.8 °F 12.2 °F 47% 30.10 in 10.0 mi SSE 11.5 mph - N/A   Clear
2:15 AM 32.0 °F 23.6 °F 12.2 °F 44% 30.10 in 10.0 mi SSE 10.4 mph - N/A   Clear
2:35 AM 32.0 °F 23.6 °F 12.2 °F 44% 30.10 in 10.0 mi South 10.4 mph - N/A   Clear
2:55 AM 32.0 °F 22.5 °F 12.2 °F 44% 30.11 in 10.0 mi SSE 12.7 mph - N/A   Clear
3:15 AM 30.2 °F 21.3 °F 12.2 °F 47% 30.11 in 10.0 mi South 10.4 mph - N/A   Clear
3:35 AM 30.2 °F 22.6 °F 10.4 °F 44% 30.11 in 10.0 mi South 8.1 mph - N/A   Clear
3:55 AM 30.2 °F 21.3 °F 12.2 °F 47% 30.11 in 10.0 mi South 10.4 mph - N/A   Clear
4:15 AM 30.2 °F 21.9 °F 12.2 °F 47% 30.11 in 10.0 mi SSE 9.2 mph - N/A   Scattered Clouds
4:35 AM 30.2 °F 22.6 °F 12.2 °F 47% 30.10 in 10.0 mi SSE 8.1 mph - N/A   Mostly Cloudy
4:55 AM 32.0 °F 23.0 °F 12.2 °F 44% 30.10 in 10.0 mi SSE 11.5 mph - N/A   Overcast
5:15 AM 32.0 °F 22.5 °F 12.2 °F 44% 30.10 in 10.0 mi SSE 12.7 mph - N/A   Overcast
5:35 AM 32.0 °F 22.1 °F 12.2 °F 44% 30.11 in 10.0 mi SSE 13.8 mph - N/A   Overcast
5:55 AM 32.0 °F 21.6 °F 12.2 °F 44% 30.11 in 10.0 mi SSE 15.0 mph 20.7 mph N/A   Overcast
6:15 AM 32.0 °F 23.0 °F 12.2 °F 44% 30.12 in 10.0 mi SSE 11.5 mph - N/A   Mostly Cloudy
6:35 AM 32.0 °F 24.8 °F 14.0 °F 48% 30.14 in 10.0 mi SSE 8.1 mph - N/A   Mostly Cloudy
6:55 AM 32.0 °F 24.2 °F 14.0 °F 48% 30.14 in 10.0 mi SSE 9.2 mph - N/A   Scattered Clouds
7:15 AM 32.0 °F 22.5 °F 14.0 °F 48% 30.14 in 10.0 mi SSE 12.7 mph - N/A   Scattered Clouds
7:35 AM 32.0 °F 23.0 °F 14.0 °F 48% 30.15 in 10.0 mi SSE 11.5 mph - N/A   Clear
7:55 AM 32.0 °F 24.8 °F 14.0 °F 48% 30.16 in 10.0 mi SSE 8.1 mph - N/A   Clear
8:15 AM 32.0 °F 24.2 °F 17.6 °F 55% 30.18 in 10.0 mi SSE 9.2 mph - N/A   Scattered Clouds
8:35 AM 35.6 °F 24.5 °F 19.4 °F 52% 30.19 in 10.0 mi ESE 20.7 mph 26.5 mph N/A   Overcast
8:55 AM 35.6 °F 25.2 °F 21.2 °F 56% 30.20 in 10.0 mi ESE 18.4 mph 24.2 mph N/A   Overcast
9:15 AM 35.6 °F 25.2 °F 21.2 °F 56% 30.21 in 10.0 mi SE 18.4 mph 24.2 mph N/A   Overcast
9:35 AM 35.6 °F 25.2 °F 23.0 °F 60% 30.21 in 10.0 mi ESE 18.4 mph 29.9 mph N/A   Overcast
9:55 AM 35.6 °F 25.5 °F 26.6 °F 70% 30.22 in 10.0 mi ESE 17.3 mph 28.8 mph N/A   Overcast
10:15 AM 35.6 °F 23.7 °F 26.6 °F 70% 30.21 in 10.0 mi ESE 24.2 mph 31.1 mph N/A   Overcast
10:35 AM 37.4 °F 26.4 °F 26.6 °F 65% 30.21 in 10.0 mi ESE 23.0 mph 32.2 mph N/A   Overcast
10:55 AM 37.4 °F 26.6 °F 26.6 °F 65% 30.21 in 10.0 mi ESE 21.9 mph 29.9 mph N/A   Overcast
11:15 AM 37.4 °F 26.9 °F 26.6 °F 65% 30.21 in 10.0 mi ESE 20.7 mph 29.9 mph N/A   Overcast
11:35 AM 37.4 °F 26.9 °F 26.6 °F 65% 30.20 in 10.0 mi ESE 20.7 mph 27.6 mph N/A   Overcast
11:55 AM 37.4 °F 26.1 °F 26.6 °F 65% 30.20 in 10.0 mi ESE 24.2 mph 33.4 mph N/A   Overcast
12:15 PM 35.6 °F 23.4 °F 26.6 °F 70% 30.19 in 10.0 mi ESE 25.3 mph 31.1 mph N/A   Overcast
12:35 PM 37.4 °F 26.1 °F 26.6 °F 65% 30.19 in 10.0 mi ESE 24.2 mph 31.1 mph N/A   Overcast
12:55 PM 37.4 °F 26.1 °F 26.6 °F 65% 30.18 in 10.0 mi ESE 24.2 mph 28.8 mph N/A   Overcast
1:15 PM 37.4 °F 26.6 °F 26.6 °F 65% 30.17 in 10.0 mi ESE 21.9 mph 28.8 mph N/A   Overcast
1:35 PM 37.4 °F 26.6 °F 28.4 °F 70% 30.17 in 10.0 mi ESE 21.9 mph 28.8 mph N/A   Overcast
1:55 PM 37.4 °F 26.9 °F 28.4 °F 70% 30.17 in 10.0 mi ESE 20.7 mph 27.6 mph N/A   Overcast
2:15 PM 37.4 °F 26.9 °F 28.4 °F 70% 30.17 in 10.0 mi ESE 20.7 mph 26.5 mph N/A   Overcast
2:35 PM 37.4 °F 26.9 °F 28.4 °F 70% 30.17 in 10.0 mi ESE 20.7 mph 26.5 mph N/A   Overcast
2:55 PM 37.4 °F 27.8 °F 28.4 °F 70% 30.18 in 10.0 mi ESE 17.3 mph 26.5 mph N/A   Overcast
3:15 PM 37.4 °F 26.9 °F 28.4 °F 70% 30.18 in 10.0 mi ESE 20.7 mph 26.5 mph N/A   Overcast
3:35 PM 37.4 °F 26.6 °F 28.4 °F 70% 30.19 in 10.0 mi ESE 21.9 mph 26.5 mph N/A   Overcast
3:55 PM 37.4 °F 26.9 °F 28.4 °F 70% 30.19 in 10.0 mi ESE 20.7 mph 25.3 mph N/A   Overcast
4:15 PM 37.4 °F 27.2 °F 28.4 °F 70% 30.19 in 10.0 mi SE 19.6 mph 25.3 mph N/A   Overcast
4:35 PM 37.4 °F 27.5 °F 28.4 °F 70% 30.19 in 10.0 mi SE 18.4 mph 25.3 mph N/A   Overcast
4:55 PM 35.6 °F 25.5 °F 28.4 °F 75% 30.20 in 10.0 mi SE 17.3 mph 23.0 mph N/A   Overcast
5:15 PM 35.6 °F 25.5 °F 28.4 °F 75% 30.21 in 10.0 mi SE 17.3 mph 23.0 mph N/A   Overcast
5:35 PM 35.6 °F 25.9 °F 28.4 °F 75% 30.21 in 10.0 mi ESE 16.1 mph 23.0 mph N/A   Overcast
5:55 PM 33.8 °F 23.5 °F 28.4 °F 81% 30.23 in 10.0 mi SE 16.1 mph 20.7 mph N/A   Overcast
6:15 PM 33.8 °F 23.9 °F 28.4 °F 81% 30.23 in 10.0 mi SE 15.0 mph - N/A   Overcast
6:35 PM 32.0 °F 21.2 °F 28.4 °F 87% 30.23 in 10.0 mi SE 16.1 mph 20.7 mph N/A   Overcast
6:55 PM 32.0 °F 21.6 °F 26.6 °F 80% 30.23 in 10.0 mi SE 15.0 mph 20.7 mph N/A   Overcast
7:15 PM 32.0 °F 22.1 °F 26.6 °F 80% 30.23 in 10.0 mi SE 13.8 mph - N/A   Mostly Cloudy
7:35 PM 32.0 °F 21.6 °F 26.6 °F 80% 30.24 in 10.0 mi SE 15.0 mph - N/A   Scattered Clouds
7:55 PM 32.0 °F 22.5 °F 26.6 °F 80% 30.24 in 10.0 mi SE 12.7 mph - N/A   Mostly Cloudy
8:15 PM 32.0 °F 22.5 °F 26.6 °F 80% 30.24 in 10.0 mi SE 12.7 mph - N/A   Overcast
8:35 PM 32.0 °F 22.5 °F 26.6 °F 80% 30.25 in 10.0 mi SE 12.7 mph - N/A   Overcast
8:55 PM 32.0 °F 22.1 °F 26.6 °F 80% 30.25 in 10.0 mi SE 13.8 mph 19.6 mph N/A   Overcast
9:15 PM 32.0 °F 22.1 °F 26.6 °F 80% 30.25 in 10.0 mi SE 13.8 mph - N/A   Overcast
9:35 PM 32.0 °F 22.1 °F 28.4 °F 87% 30.26 in 10.0 mi SE 13.8 mph 18.4 mph N/A   Overcast
9:55 PM 32.0 °F 21.2 °F 28.4 °F 87% 30.27 in 10.0 mi SE 16.1 mph - N/A   Overcast
10:15 PM 32.0 °F 22.1 °F 28.4 °F 87% 30.26 in 10.0 mi SE 13.8 mph - N/A   Overcast
10:35 PM 32.0 °F 23.0 °F 28.4 °F 87% 30.27 in 10.0 mi SE 11.5 mph 16.1 mph N/A   Overcast
10:55 PM 32.0 °F 23.6 °F 28.4 °F 87% 30.27 in 10.0 mi SE 10.4 mph 18.4 mph N/A   Overcast
11:15 PM 32.0 °F 22.1 °F 30.2 °F 93% 30.27 in 7.0 mi SE 13.8 mph - N/A   Overcast
11:35 PM 32.0 °F 22.1 °F 30.2 °F 93% 30.27 in 5.0 mi SE 13.8 mph 19.6 mph N/A Snow Light Snow
11:55 PM 32.0 °F 22.5 °F 30.2 °F 93% 30.27 in 7.0 mi SE 12.7 mph 19.6 mph N/A Snow Light Snow